Time,TemperatureF,DewpointF,PressureIn,WindDirection,WindDirectionDegrees,WindSpeedMPH,WindSpeedGustMPH,Humidity,HourlyPrecipIn,Conditions,Clouds,dailyrainin,SoftwareType,DateUTC
2013-04-24 00:02:00,54.3,45.1,29.81,SW,225,0.0,0.0,71,0.00,,,0.00,VWS V14.01,2013-04-23 23:02:00,
2013-04-24 00:07:00,54.1,44.9,29.81,SW,225,0.0,0.0,71,0.00,,,0.00,VWS V14.01,2013-04-23 23:07:00,
2013-04-24 00:12:00,54.0,44.8,29.81,SW,225,0.0,0.0,71,0.00,,,0.00,VWS V14.01,2013-04-23 23:12:00,
2013-04-24 00:17:00,53.8,44.6,29.81,SW,225,0.0,0.0,71,0.00,,,0.00,VWS V14.01,2013-04-23 23:17:00,
2013-04-24 00:22:00,53.8,44.6,29.81,SW,225,0.0,0.0,71,0.00,,,0.00,VWS V14.01,2013-04-23 23:22:00,
2013-04-24 00:28:00,53.4,44.2,29.81,SW,225,0.0,0.0,71,0.00,,,0.00,VWS V14.01,2013-04-23 23:28:00,
2013-04-24 00:33:00,53.4,44.6,29.81,SSW,202,0.0,0.0,72,0.00,,,0.00,VWS V14.01,2013-04-23 23:33:00,
2013-04-24 00:39:00,53.4,45.0,29.81,SSW,202,0.0,0.0,73,0.00,,,0.00,VWS V14.01,2013-04-23 23:39:00,
2013-04-24 00:44:00,53.4,45.0,29.81,SSW,202,0.0,0.0,73,0.00,,,0.00,VWS V14.01,2013-04-23 23:44:00,
2013-04-24 00:50:00,53.2,44.8,29.81,SSW,202,0.0,0.0,73,0.00,,,0.00,VWS V14.01,2013-04-23 23:50:00,
2013-04-24 00:56:00,52.9,44.5,29.81,SW,225,0.0,0.0,73,0.00,,,0.00,VWS V14.01,2013-04-23 23:56:00,
2013-04-24 01:02:00,52.9,44.5,29.81,SSW,202,0.0,0.0,73,0.00,,,0.00,VWS V14.01,2013-04-24 00:02:00,
2013-04-24 01:08:00,52.5,44.1,29.81,SSW,202,0.0,0.0,73,0.00,,,0.00,VWS V14.01,2013-04-24 00:08:00,
2013-04-24 01:14:00,52.3,44.3,29.82,SW,225,0.0,0.0,74,0.00,,,0.00,VWS V14.01,2013-04-24 00:14:00,
2013-04-24 01:20:00,52.0,44.3,29.81,SW,225,0.0,0.0,75,0.00,,,0.00,VWS V14.01,2013-04-24 00:20:00,
2013-04-24 01:26:00,51.8,44.1,29.81,SW,225,0.0,0.0,75,0.00,,,0.00,VWS V14.01,2013-04-24 00:26:00,
2013-04-24 01:31:00,51.6,44.0,29.81,SW,225,0.0,0.0,75,0.00,,,0.00,VWS V14.01,2013-04-24 00:31:00,
2013-04-24 01:37:00,51.4,44.1,29.81,SSW,202,0.0,0.0,76,0.00,,,0.00,VWS V14.01,2013-04-24 00:37:00,
2013-04-24 01:43:00,51.4,44.1,29.81,SW,225,0.0,0.0,76,0.00,,,0.00,VWS V14.01,2013-04-24 00:43:00,
2013-04-24 01:48:00,51.3,44.3,29.81,SSW,202,0.0,0.0,77,0.00,,,0.00,VWS V14.01,2013-04-24 00:48:00,
2013-04-24 01:53:00,51.1,44.2,29.80,SW,225,0.0,0.0,77,0.00,,,0.00,VWS V14.01,2013-04-24 00:53:00,
2013-04-24 01:59:00,50.9,44.0,29.81,SW,225,0.0,0.0,77,0.00,,,0.00,VWS V14.01,2013-04-24 00:59:00,
2013-04-24 02:05:00,50.9,44.3,29.80,SSW,202,0.0,0.0,78,0.00,,,0.00,VWS V14.01,2013-04-24 01:05:00,
2013-04-24 02:11:00,50.7,44.1,29.80,SSW,202,0.0,0.0,78,0.00,,,0.00,VWS V14.01,2013-04-24 01:11:00,
2013-04-24 02:17:00,50.7,44.4,29.80,SSW,202,0.0,0.0,79,0.00,,,0.00,VWS V14.01,2013-04-24 01:17:00,
2013-04-24 02:23:00,50.5,44.2,29.80,SSW,202,0.0,0.0,79,0.00,,,0.00,VWS V14.01,2013-04-24 01:23:00,
2013-04-24 02:28:00,50.5,44.2,29.80,SW,225,0.0,0.0,79,0.00,,,0.00,VWS V14.01,2013-04-24 01:28:00,
2013-04-24 02:33:00,50.4,44.1,29.80,SW,225,0.0,0.0,79,0.00,,,0.00,VWS V14.01,2013-04-24 01:33:00,
2013-04-24 02:39:00,50.2,44.3,29.80,SW,225,0.0,0.0,80,0.00,,,0.00,VWS V14.01,2013-04-24 01:39:00,
2013-04-24 02:45:00,50.2,44.3,29.80,SSW,202,0.0,0.0,80,0.00,,,0.00,VWS V14.01,2013-04-24 01:45:00,
2013-04-24 02:51:00,50.2,44.3,29.80,SSW,202,0.0,0.0,80,0.00,,,0.00,VWS V14.01,2013-04-24 01:51:00,
2013-04-24 02:56:00,49.8,43.9,29.80,SSW,202,0.0,0.0,80,0.00,,,0.00,VWS V14.01,2013-04-24 01:56:00,
2013-04-24 03:01:00,49.8,44.2,29.80,SSW,202,0.0,0.0,81,0.00,,,0.00,VWS V14.01,2013-04-24 02:01:00,
2013-04-24 03:07:00,49.6,44.0,29.80,SW,225,0.0,0.0,81,0.00,,,0.00,VWS V14.01,2013-04-24 02:07:00,
2013-04-24 03:12:00,49.6,44.0,29.80,SW,225,0.0,0.0,81,0.00,,,0.00,VWS V14.01,2013-04-24 02:12:00,
2013-04-24 03:18:00,49.5,44.2,29.80,SW,225,0.0,0.0,82,0.00,,,0.00,VWS V14.01,2013-04-24 02:18:00,
2013-04-24 03:23:00,49.3,44.0,29.80,South,180,0.0,0.0,82,0.00,,,0.00,VWS V14.01,2013-04-24 02:23:00,
2013-04-24 03:29:00,49.3,44.0,29.80,SW,225,0.0,0.0,82,0.00,,,0.00,VWS V14.01,2013-04-24 02:29:00,
2013-04-24 03:34:00,49.3,44.4,29.80,SSW,202,0.0,0.0,83,0.00,,,0.00,VWS V14.01,2013-04-24 02:34:00,
2013-04-24 03:40:00,49.3,44.4,29.80,South,180,0.0,0.0,83,0.00,,,0.00,VWS V14.01,2013-04-24 02:40:00,
2013-04-24 03:46:00,49.1,44.2,29.80,SW,225,0.0,0.0,83,0.00,,,0.00,VWS V14.01,2013-04-24 02:46:00,
2013-04-24 03:51:00,49.1,44.2,29.80,SW,225,0.0,0.0,83,0.00,,,0.00,VWS V14.01,2013-04-24 02:51:00,
2013-04-24 03:57:00,48.9,44.0,29.80,SSW,202,0.0,0.0,83,0.00,,,0.00,VWS V14.01,2013-04-24 02:57:00,
2013-04-24 04:03:00,48.7,43.8,29.80,SW,225,0.0,0.0,83,0.00,,,0.00,VWS V14.01,2013-04-24 03:03:00,
2013-04-24 04:09:00,48.7,44.1,29.80,SW,225,0.0,0.0,84,0.00,,,0.00,VWS V14.01,2013-04-24 03:09:00,
2013-04-24 04:14:00,48.6,44.0,29.80,SSW,202,0.0,0.0,84,0.00,,,0.00,VWS V14.01,2013-04-24 03:14:00,
2013-04-24 04:19:00,48.4,43.8,29.80,SSW,202,0.0,0.0,84,0.00,,,0.00,VWS V14.01,2013-04-24 03:19:00,
2013-04-24 04:25:00,48.4,44.1,29.81,SSW,202,0.0,0.0,85,0.00,,,0.00,VWS V14.01,2013-04-24 03:25:00,
2013-04-24 04:30:00,48.4,44.1,29.81,SSW,202,0.0,0.0,85,0.00,,,0.00,VWS V14.01,2013-04-24 03:30:00,
2013-04-24 04:36:00,48.0,43.7,29.81,North,0,0.0,0.0,85,0.00,,,0.00,VWS V14.01,2013-04-24 03:36:00,
2013-04-24 04:41:00,48.0,43.7,29.81,North,0,0.0,0.0,85,0.00,,,0.00,VWS V14.01,2013-04-24 03:41:00,
2013-04-24 04:47:00,48.0,43.7,29.81,North,0,0.0,0.0,85,0.00,,,0.00,VWS V14.01,2013-04-24 03:47:00,
2013-04-24 04:53:00,47.8,43.5,29.81,North,0,0.0,0.0,85,0.00,,,0.00,VWS V14.01,2013-04-24 03:53:00,
2013-04-24 04:59:00,47.5,43.2,29.80,North,0,0.0,0.0,85,0.00,,,0.00,VWS V14.01,2013-04-24 03:59:00,
2013-04-24 05:01:00,47.5,43.2,29.80,North,0,0.0,0.0,85,0.00,,,0.00,VWS V14.01,2013-04-24 04:01:00,
2013-04-24 05:02:00,47.3,43.0,29.80,North,0,0.0,0.0,85,0.00,,,0.00,VWS V14.01,2013-04-24 04:02:00,
2013-04-24 05:05:00,47.3,43.0,29.81,North,0,0.0,0.0,85,0.00,,,0.00,VWS V14.01,2013-04-24 04:05:00,
2013-04-24 05:06:00,47.3,43.0,29.80,North,0,0.0,0.0,85,0.00,,,0.00,VWS V14.01,2013-04-24 04:06:00,
2013-04-24 05:09:00,47.1,43.1,29.80,North,0,0.0,0.0,86,0.00,,,0.00,VWS V14.01,2013-04-24 04:09:00,
2013-04-24 05:15:00,47.1,43.1,29.80,North,0,0.0,0.0,86,0.00,,,0.00,VWS V14.01,2013-04-24 04:15:00,
2013-04-24 05:20:00,47.1,43.1,29.80,SW,225,0.0,0.0,86,0.00,,,0.00,VWS V14.01,2013-04-24 04:20:00,
2013-04-24 05:26:00,47.1,43.1,29.80,SW,225,0.0,0.0,86,0.00,,,0.00,VWS V14.01,2013-04-24 04:26:00,
2013-04-24 05:32:00,47.3,43.6,29.80,SW,225,0.0,0.0,87,0.00,,,0.00,VWS V14.01,2013-04-24 04:32:00,
2013-04-24 05:38:00,47.3,43.6,29.80,SSW,202,0.0,0.0,87,0.00,,,0.00,VWS V14.01,2013-04-24 04:38:00,
2013-04-24 05:43:00,47.3,43.6,29.81,SSW,202,0.0,0.0,87,0.00,,,0.00,VWS V14.01,2013-04-24 04:43:00,
2013-04-24 05:49:00,47.3,43.6,29.81,SSW,202,0.0,0.0,87,0.00,,,0.00,VWS V14.01,2013-04-24 04:49:00,
2013-04-24 05:55:00,47.3,43.6,29.81,SW,225,0.0,0.0,87,0.00,,,0.00,VWS V14.01,2013-04-24 04:55:00,
2013-04-24 06:01:00,47.3,43.6,29.81,SW,225,0.0,0.0,87,0.00,,,0.00,VWS V14.01,2013-04-24 05:01:00,
2013-04-24 06:06:00,47.5,43.8,29.81,SW,225,0.0,0.0,87,0.00,,,0.00,VWS V14.01,2013-04-24 05:06:00,
2013-04-24 06:11:00,47.5,44.1,29.81,SW,225,0.0,0.0,88,0.00,,,0.00,VWS V14.01,2013-04-24 05:11:00,
2013-04-24 06:17:00,48.0,44.6,29.82,SW,225,0.0,0.0,88,0.00,,,0.00,VWS V14.01,2013-04-24 05:17:00,
2013-04-24 06:23:00,48.4,44.7,29.81,SW,225,0.0,0.0,87,0.00,,,0.00,VWS V14.01,2013-04-24 05:23:00,
2013-04-24 06:29:00,49.3,45.6,29.81,SW,225,0.0,0.0,87,0.00,,,0.00,VWS V14.01,2013-04-24 05:29:00,
2013-04-24 06:34:00,50.0,46.0,29.81,SW,225,0.0,0.0,86,0.00,,,0.00,VWS V14.01,2013-04-24 05:34:00,
2013-04-24 06:40:00,51.3,47.0,29.82,SSW,202,0.0,0.0,85,0.00,,,0.00,VWS V14.01,2013-04-24 05:40:00,
2013-04-24 06:46:00,52.2,46.9,29.81,SW,225,0.0,0.0,82,0.00,,,0.00,VWS V14.01,2013-04-24 05:46:00,
2013-04-24 06:52:00,52.0,46.4,29.81,SW,225,0.0,0.0,81,0.00,,,0.00,VWS V14.01,2013-04-24 05:52:00,
2013-04-24 06:58:00,52.2,46.5,29.82,SW,225,0.0,0.0,81,0.00,,,0.00,VWS V14.01,2013-04-24 05:58:00,
2013-04-24 07:03:00,52.9,46.9,29.82,SSW,202,2.9,2.9,80,0.00,,,0.00,VWS V14.01,2013-04-24 06:03:00,
2013-04-24 07:08:00,53.8,47.5,29.82,SW,225,0.0,0.0,79,0.00,,,0.00,VWS V14.01,2013-04-24 06:08:00,
2013-04-24 07:13:00,55.0,47.9,29.82,SW,225,3.1,3.6,77,0.00,,,0.00,VWS V14.01,2013-04-24 06:13:00,
2013-04-24 07:19:00,55.9,48.1,29.83,SW,225,0.0,0.0,75,0.00,,,0.00,VWS V14.01,2013-04-24 06:19:00,
2013-04-24 07:24:00,56.8,48.2,29.82,SW,225,0.7,0.7,73,0.00,,,0.00,VWS V14.01,2013-04-24 06:24:00,
2013-04-24 07:29:00,57.0,48.1,29.83,South,180,0.0,3.1,72,0.00,,,0.00,VWS V14.01,2013-04-24 06:29:00,
2013-04-24 07:35:00,57.7,48.4,29.83,SW,225,0.0,0.0,71,0.00,,,0.00,VWS V14.01,2013-04-24 06:35:00,
2013-04-24 07:41:00,58.1,48.0,29.83,SW,225,0.0,2.9,69,0.00,,,0.00,VWS V14.01,2013-04-24 06:41:00,
2013-04-24 07:46:00,58.8,48.7,29.83,South,180,0.0,7.4,69,0.00,,,0.00,VWS V14.01,2013-04-24 06:46:00,
2013-04-24 07:51:00,59.9,48.9,29.83,SW,225,0.0,0.0,67,0.00,,,0.00,VWS V14.01,2013-04-24 06:51:00,
2013-04-24 07:57:00,60.6,49.2,29.83,South,180,0.0,0.0,66,0.00,,,0.00,VWS V14.01,2013-04-24 06:57:00,
2013-04-24 08:03:00,61.3,49.0,29.83,South,180,0.0,0.0,64,0.00,,,0.00,VWS V14.01,2013-04-24 07:03:00,
2013-04-24 08:09:00,61.5,48.8,29.83,SW,225,3.6,4.9,63,0.00,,,0.00,VWS V14.01,2013-04-24 07:09:00,
2013-04-24 08:14:00,61.9,49.2,29.83,South,180,5.8,5.8,63,0.00,,,0.00,VWS V14.01,2013-04-24 07:14:00,
2013-04-24 08:19:00,62.4,49.7,29.83,SSW,202,0.0,2.9,63,0.00,,,0.00,VWS V14.01,2013-04-24 07:19:00,
2013-04-24 08:24:00,63.3,49.6,29.83,North,0,0.0,6.7,61,0.00,,,0.00,VWS V14.01,2013-04-24 07:24:00,
2013-04-24 08:30:00,63.3,49.6,29.83,SSW,202,0.0,8.5,61,0.00,,,0.00,VWS V14.01,2013-04-24 07:30:00,
2013-04-24 08:35:00,63.1,49.5,29.83,SW,225,3.6,6.0,61,0.00,,,0.00,VWS V14.01,2013-04-24 07:35:00,
2013-04-24 08:40:00,63.0,49.4,29.84,SW,225,1.8,8.5,61,0.00,,,0.00,VWS V14.01,2013-04-24 07:40:00,
2013-04-24 08:46:00,63.1,49.5,29.84,SW,225,0.0,0.0,61,0.00,,,0.00,VWS V14.01,2013-04-24 07:46:00,
2013-04-24 08:52:00,64.0,49.4,29.83,NNE,22,2.9,6.7,59,0.00,,,0.00,VWS V14.01,2013-04-24 07:52:00,
2013-04-24 08:58:00,64.4,49.8,29.83,SSW,202,0.0,5.6,59,0.00,,,0.00,VWS V14.01,2013-04-24 07:58:00,
2013-04-24 09:03:00,65.1,50.0,29.83,NE,45,0.0,7.4,58,0.00,,,0.00,VWS V14.01,2013-04-24 08:03:00,
2013-04-24 09:09:00,64.6,49.5,29.83,SW,225,0.0,5.1,58,0.00,,,0.00,VWS V14.01,2013-04-24 08:09:00,
2013-04-24 09:15:00,64.2,49.1,29.83,SW,225,6.7,6.7,58,0.00,,,0.00,VWS V14.01,2013-04-24 08:15:00,
2013-04-24 09:20:00,63.3,48.7,29.83,SW,225,0.0,3.8,59,0.00,,,0.00,VWS V14.01,2013-04-24 08:20:00,
2013-04-24 09:25:00,63.1,49.5,29.83,SSW,202,6.7,6.7,61,0.00,,,0.00,VWS V14.01,2013-04-24 08:25:00,
2013-04-24 09:31:00,63.7,49.6,29.84,North,0,3.8,5.8,60,0.00,,,0.00,VWS V14.01,2013-04-24 08:31:00,
2013-04-24 09:36:00,64.0,49.8,29.84,SW,225,3.8,8.7,60,0.00,,,0.00,VWS V14.01,2013-04-24 08:36:00,
2013-04-24 09:41:00,64.6,50.0,29.84,North,0,0.0,1.6,59,0.00,,,0.00,VWS V14.01,2013-04-24 08:41:00,
2013-04-24 09:46:00,65.1,50.0,29.84,SW,225,4.0,5.4,58,0.00,,,0.00,VWS V14.01,2013-04-24 08:46:00,
2013-04-24 09:51:00,64.9,49.3,29.84,SW,225,0.0,6.0,57,0.00,,,0.00,VWS V14.01,2013-04-24 08:51:00,
2013-04-24 09:57:00,64.8,50.2,29.84,SW,225,0.0,0.0,59,0.00,,,0.00,VWS V14.01,2013-04-24 08:57:00,
2013-04-24 10:02:00,65.5,49.9,29.84,SSW,202,2.7,5.1,57,0.00,,,0.00,VWS V14.01,2013-04-24 09:02:00,
2013-04-24 10:08:00,64.9,49.8,29.84,SSW,202,4.9,4.9,58,0.00,,,0.00,VWS V14.01,2013-04-24 09:08:00,
2013-04-24 10:14:00,64.8,49.7,29.85,SSW,202,0.0,4.7,58,0.00,,,0.00,VWS V14.01,2013-04-24 09:14:00,
2013-04-24 10:19:00,64.9,49.8,29.85,SSW,202,4.5,9.4,58,0.00,,,0.00,VWS V14.01,2013-04-24 09:19:00,
2013-04-24 10:25:00,64.6,49.5,29.85,South,180,0.9,7.6,58,0.00,,,0.00,VWS V14.01,2013-04-24 09:25:00,
2013-04-24 10:31:00,64.2,49.1,29.85,North,0,0.0,4.9,58,0.00,,,0.00,VWS V14.01,2013-04-24 09:31:00,
2013-04-24 10:36:00,64.0,49.4,29.85,North,0,0.0,4.7,59,0.00,,,0.00,VWS V14.01,2013-04-24 09:36:00,
2013-04-24 10:42:00,64.2,50.0,29.84,SW,225,0.0,1.6,60,0.00,,,0.00,VWS V14.01,2013-04-24 09:42:00,
2013-04-24 10:47:00,64.9,50.2,29.85,NNW,337,0.0,0.0,59,0.00,,,0.00,VWS V14.01,2013-04-24 09:47:00,
2013-04-24 10:53:00,65.1,50.0,29.84,SSW,202,0.0,0.0,58,0.00,,,0.00,VWS V14.01,2013-04-24 09:53:00,
2013-04-24 10:59:00,65.1,50.0,29.85,SSW,202,3.8,5.4,58,0.00,,,0.00,VWS V14.01,2013-04-24 09:59:00,
2013-04-24 11:04:00,65.1,50.4,29.84,North,0,2.0,5.1,59,0.00,,,0.00,VWS V14.01,2013-04-24 10:04:00,
2013-04-24 11:10:00,65.1,50.0,29.84,SW,225,0.0,4.3,58,0.00,,,0.00,VWS V14.01,2013-04-24 10:10:00,
2013-04-24 11:16:00,64.9,50.2,29.84,SSW,202,0.0,4.5,59,0.00,,,0.00,VWS V14.01,2013-04-24 10:16:00,
2013-04-24 11:22:00,66.0,50.8,29.84,SW,225,3.4,4.9,58,0.00,,,0.00,VWS V14.01,2013-04-24 10:22:00,
2013-04-24 11:28:00,67.3,51.6,29.83,South,180,0.0,3.1,57,0.00,,,0.00,VWS V14.01,2013-04-24 10:28:00,
2013-04-24 11:34:00,68.5,51.2,29.84,SW,225,5.8,5.8,54,0.00,,,0.00,VWS V14.01,2013-04-24 10:34:00,
2013-04-24 11:40:00,68.2,50.9,29.84,SSW,202,0.4,6.3,54,0.00,,,0.00,VWS V14.01,2013-04-24 10:40:00,
2013-04-24 11:45:00,68.2,50.9,29.84,SW,225,0.0,2.5,54,0.00,,,0.00,VWS V14.01,2013-04-24 10:45:00,
2013-04-24 11:51:00,68.4,50.6,29.83,SSW,202,6.3,6.3,53,0.00,,,0.00,VWS V14.01,2013-04-24 10:51:00,
2013-04-24 11:57:00,66.9,50.2,29.83,SW,225,4.7,6.7,55,0.00,,,0.00,VWS V14.01,2013-04-24 10:57:00,
2013-04-24 12:02:00,66.9,50.2,29.83,SSW,202,4.5,5.6,55,0.00,,,0.00,VWS V14.01,2013-04-24 11:02:00,
2013-04-24 12:08:00,66.9,49.7,29.83,SW,225,6.0,8.3,54,0.00,,,0.00,VWS V14.01,2013-04-24 11:08:00,
2013-04-24 12:13:00,66.6,50.0,29.83,SW,225,9.2,10.1,55,0.00,,,0.00,VWS V14.01,2013-04-24 11:13:00,
2013-04-24 12:19:00,66.6,50.0,29.83,SSW,202,1.6,6.5,55,0.00,,,0.00,VWS V14.01,2013-04-24 11:19:00,
2013-04-24 12:24:00,66.0,49.4,29.83,SW,225,0.0,6.9,55,0.00,,,0.00,VWS V14.01,2013-04-24 11:24:00,
2013-04-24 12:29:00,65.7,49.6,29.83,NNW,337,5.8,5.8,56,0.00,,,0.00,VWS V14.01,2013-04-24 11:29:00,
2013-04-24 12:35:00,65.5,49.4,29.83,SSW,202,0.0,6.3,56,0.00,,,0.00,VWS V14.01,2013-04-24 11:35:00,
2013-04-24 12:40:00,65.5,49.9,29.83,North,0,3.1,3.1,57,0.00,,,0.00,VWS V14.01,2013-04-24 11:40:00,
2013-04-24 12:46:00,65.5,49.9,29.83,SW,225,2.0,6.5,57,0.00,,,0.00,VWS V14.01,2013-04-24 11:46:00,
2013-04-24 12:51:00,66.0,50.3,29.83,SSW,202,0.0,3.6,57,0.00,,,0.00,VWS V14.01,2013-04-24 11:51:00,
2013-04-24 12:57:00,67.3,50.6,29.83,North,0,0.0,6.0,55,0.00,,,0.00,VWS V14.01,2013-04-24 11:57:00,
2013-04-24 13:02:00,68.2,50.9,29.83,SW,225,1.6,6.9,54,0.00,,,0.00,VWS V14.01,2013-04-24 12:02:00,
2013-04-24 13:08:00,68.9,50.6,29.83,SW,225,5.1,6.3,52,0.00,,,0.00,VWS V14.01,2013-04-24 12:08:00,
2013-04-24 13:13:00,69.4,51.0,29.82,SSW,202,0.0,0.0,52,0.00,,,0.00,VWS V14.01,2013-04-24 12:13:00,
2013-04-24 13:19:00,69.6,50.7,29.83,SSW,202,4.0,9.8,51,0.00,,,0.00,VWS V14.01,2013-04-24 12:19:00,
2013-04-24 13:25:00,68.9,50.6,29.83,North,0,0.0,5.8,52,0.00,,,0.00,VWS V14.01,2013-04-24 12:25:00,
2013-04-24 13:31:00,68.7,50.4,29.83,North,0,7.8,7.8,52,0.00,,,0.00,VWS V14.01,2013-04-24 12:31:00,
2013-04-24 13:36:00,69.4,51.5,29.83,SSW,202,3.4,7.8,53,0.00,,,0.00,VWS V14.01,2013-04-24 12:36:00,
2013-04-24 13:41:00,70.2,51.2,29.83,SW,225,2.7,6.9,51,0.00,,,0.00,VWS V14.01,2013-04-24 12:41:00,
2013-04-24 13:46:00,70.0,51.1,29.83,North,0,5.6,8.3,51,0.00,,,0.00,VWS V14.01,2013-04-24 12:46:00,
2013-04-24 13:52:00,69.4,50.5,29.82,NNW,337,0.0,6.9,51,0.00,,,0.00,VWS V14.01,2013-04-24 12:52:00,
2013-04-24 13:57:00,69.6,51.2,29.83,SSW,202,7.2,7.2,52,0.00,,,0.00,VWS V14.01,2013-04-24 12:57:00,
2013-04-24 14:02:00,70.0,51.1,29.82,SSW,202,4.3,6.9,51,0.00,,,0.00,VWS V14.01,2013-04-24 13:02:00,
2013-04-24 14:08:00,70.0,50.5,29.82,North,0,0.0,0.0,50,0.00,,,0.00,VWS V14.01,2013-04-24 13:08:00,
2013-04-24 14:14:00,70.3,51.3,29.82,SW,225,0.0,0.0,51,0.00,,,0.00,VWS V14.01,2013-04-24 13:14:00,
2013-04-24 14:20:00,70.9,51.3,29.83,SSW,202,0.0,0.0,50,0.00,,,0.00,VWS V14.01,2013-04-24 13:20:00,
2013-04-24 14:25:00,71.2,51.6,29.82,SSW,202,0.0,2.7,50,0.00,,,0.00,VWS V14.01,2013-04-24 13:25:00,
2013-04-24 14:31:00,72.7,51.9,29.81,SW,225,0.0,0.4,48,0.00,,,0.00,VWS V14.01,2013-04-24 13:31:00,
2013-04-24 14:36:00,73.6,51.6,29.81,South,180,0.0,4.5,46,0.00,,,0.00,VWS V14.01,2013-04-24 13:36:00,
2013-04-24 14:42:00,73.6,52.2,29.80,SW,225,0.0,0.0,47,0.00,,,0.00,VWS V14.01,2013-04-24 13:42:00,
2013-04-24 14:48:00,76.8,53.3,29.81,SSW,202,1.6,4.7,44,0.00,,,0.00,VWS V14.01,2013-04-24 13:48:00,
2013-04-24 14:54:00,75.9,51.8,29.82,SSW,202,0.0,0.0,43,0.00,,,0.00,VWS V14.01,2013-04-24 13:54:00,
2013-04-24 15:00:00,73.2,51.2,29.82,SW,225,0.0,0.0,46,0.00,,,0.00,VWS V14.01,2013-04-24 14:00:00,
2013-04-24 15:05:00,72.5,51.2,29.82,SSW,202,6.9,8.3,47,0.00,,,0.00,VWS V14.01,2013-04-24 14:05:00,
2013-04-24 15:11:00,72.3,51.5,29.82,SSW,202,6.0,12.1,48,0.00,,,0.00,VWS V14.01,2013-04-24 14:11:00,
2013-04-24 15:17:00,72.3,51.5,29.82,NNW,337,0.0,4.3,48,0.00,,,0.00,VWS V14.01,2013-04-24 14:17:00,
2013-04-24 15:22:00,71.8,51.6,29.82,SSW,202,1.3,4.7,49,0.00,,,0.00,VWS V14.01,2013-04-24 14:22:00,
2013-04-24 15:28:00,72.0,51.8,29.82,NNE,22,0.0,2.0,49,0.00,,,0.00,VWS V14.01,2013-04-24 14:28:00,
2013-04-24 15:34:00,71.2,51.1,29.82,SSW,202,0.0,4.9,49,0.00,,,0.00,VWS V14.01,2013-04-24 14:34:00,
2013-04-24 15:39:00,70.3,51.3,29.82,SSW,202,0.0,2.5,51,0.00,,,0.00,VWS V14.01,2013-04-24 14:39:00,
2013-04-24 15:45:00,69.6,51.2,29.82,SSW,202,0.0,0.0,52,0.00,,,0.00,VWS V14.01,2013-04-24 14:45:00,
2013-04-24 15:50:00,69.6,51.2,29.82,SSW,202,0.0,7.2,52,0.00,,,0.00,VWS V14.01,2013-04-24 14:50:00,
2013-04-24 15:56:00,69.3,51.5,29.82,NNW,337,0.0,0.0,53,0.00,,,0.00,VWS V14.01,2013-04-24 14:56:00,
2013-04-24 16:02:00,69.6,51.7,29.82,North,0,5.6,5.6,53,0.00,,,0.00,VWS V14.01,2013-04-24 15:02:00,
2013-04-24 16:09:00,70.0,52.1,29.82,South,180,0.0,0.0,53,0.00,,,0.00,VWS V14.01,2013-04-24 15:09:00,
2013-04-24 16:15:00,70.5,52.0,29.82,SSW,202,4.3,6.3,52,0.00,,,0.00,VWS V14.01,2013-04-24 15:15:00,
2013-04-24 16:21:00,70.3,51.9,29.81,SW,225,0.0,0.0,52,0.00,,,0.00,VWS V14.01,2013-04-24 15:21:00,
2013-04-24 16:26:00,70.2,52.3,29.81,SSW,202,6.0,6.0,53,0.00,,,0.00,VWS V14.01,2013-04-24 15:26:00,
2013-04-24 16:32:00,70.2,52.3,29.81,SSW,202,7.8,7.8,53,0.00,,,0.00,VWS V14.01,2013-04-24 15:32:00,
2013-04-24 16:38:00,70.0,52.1,29.81,SSW,202,0.0,1.8,53,0.00,,,0.00,VWS V14.01,2013-04-24 15:38:00,
2013-04-24 16:44:00,70.2,52.3,29.81,SSW,202,0.0,0.0,53,0.00,,,0.00,VWS V14.01,2013-04-24 15:44:00,
2013-04-24 16:50:00,70.3,52.4,29.82,SSW,202,6.7,6.7,53,0.00,,,0.00,VWS V14.01,2013-04-24 15:50:00,
2013-04-24 16:55:00,70.0,52.1,29.81,North,0,0.0,0.9,53,0.00,,,0.00,VWS V14.01,2013-04-24 15:55:00,
2013-04-24 17:00:00,70.0,52.6,29.81,North,0,4.7,7.2,54,0.00,,,0.00,VWS V14.01,2013-04-24 16:00:00,
2013-04-24 17:06:00,70.9,52.9,29.81,NNW,337,2.0,12.3,53,0.00,,,0.00,VWS V14.01,2013-04-24 16:06:00,
2013-04-24 17:11:00,71.2,53.2,29.81,SSW,202,6.3,7.4,53,0.00,,,0.00,VWS V14.01,2013-04-24 16:11:00,
2013-04-24 17:17:00,70.7,52.8,29.81,North,0,5.6,5.6,53,0.00,,,0.00,VWS V14.01,2013-04-24 16:17:00,
2013-04-24 17:23:00,70.3,52.4,29.80,SSW,202,0.0,6.5,53,0.00,,,0.00,VWS V14.01,2013-04-24 16:23:00,
2013-04-24 17:28:00,69.8,52.4,29.80,North,0,7.4,7.4,54,0.00,,,0.00,VWS V14.01,2013-04-24 16:28:00,
2013-04-24 17:34:00,69.3,52.0,29.80,SSW,202,0.0,0.0,54,0.00,,,0.00,VWS V14.01,2013-04-24 16:34:00,
2013-04-24 17:39:00,68.9,52.6,29.81,South,180,1.8,1.8,56,0.00,,,0.00,VWS V14.01,2013-04-24 16:39:00,
2013-04-24 17:44:00,69.3,53.0,29.81,SSW,202,0.0,3.8,56,0.00,,,0.00,VWS V14.01,2013-04-24 16:44:00,
2013-04-24 17:50:00,69.1,52.8,29.80,SW,225,0.0,0.0,56,0.00,,,0.00,VWS V14.01,2013-04-24 16:50:00,
2013-04-24 17:56:00,69.1,52.8,29.81,SSW,202,0.0,0.0,56,0.00,,,0.00,VWS V14.01,2013-04-24 16:56:00,
2013-04-24 18:01:00,68.7,52.4,29.81,SSW,202,0.0,0.0,56,0.00,,,0.00,VWS V14.01,2013-04-24 17:01:00,
2013-04-24 18:06:00,68.9,53.1,29.81,SSW,202,0.0,0.0,57,0.00,,,0.00,VWS V14.01,2013-04-24 17:06:00,
2013-04-24 18:12:00,68.9,53.1,29.81,SSW,202,0.0,2.5,57,0.00,,,0.00,VWS V14.01,2013-04-24 17:12:00,
2013-04-24 18:18:00,68.4,52.6,29.81,SW,225,3.4,5.6,57,0.00,,,0.00,VWS V14.01,2013-04-24 17:18:00,
2013-04-24 18:23:00,67.8,52.5,29.81,SSE,157,1.1,6.9,58,0.00,,,0.00,VWS V14.01,2013-04-24 17:23:00,
2013-04-24 18:29:00,67.6,52.8,29.81,SW,225,0.0,0.0,59,0.00,,,0.00,VWS V14.01,2013-04-24 17:29:00,
2013-04-24 18:35:00,67.1,52.3,29.81,SW,225,0.0,0.0,59,0.00,,,0.00,VWS V14.01,2013-04-24 17:35:00,
2013-04-24 18:41:00,66.9,52.6,29.82,SW,225,0.0,0.0,60,0.00,,,0.00,VWS V14.01,2013-04-24 17:41:00,
2013-04-24 18:46:00,66.7,52.8,29.82,SSW,202,3.1,6.0,61,0.00,,,0.00,VWS V14.01,2013-04-24 17:46:00,
2013-04-24 18:52:00,66.2,52.4,29.82,SSW,202,0.0,0.0,61,0.00,,,0.00,VWS V14.01,2013-04-24 17:52:00,
2013-04-24 18:58:00,66.2,52.4,29.82,South,180,0.0,0.0,61,0.00,,,0.00,VWS V14.01,2013-04-24 17:58:00,
2013-04-24 19:03:00,66.0,52.2,29.82,SSW,202,0.0,0.0,61,0.00,,,0.00,VWS V14.01,2013-04-24 18:03:00,
2013-04-24 19:08:00,65.8,52.4,29.82,SSW,202,0.0,0.0,62,0.00,,,0.00,VWS V14.01,2013-04-24 18:08:00,
2013-04-24 19:13:00,65.3,52.4,29.82,SW,225,0.0,0.0,63,0.00,,,0.00,VWS V14.01,2013-04-24 18:13:00,
2013-04-24 19:18:00,64.8,51.9,29.83,South,180,0.0,0.0,63,0.00,,,0.00,VWS V14.01,2013-04-24 18:18:00,
2013-04-24 19:24:00,64.2,51.8,29.83,South,180,2.0,4.0,64,0.00,,,0.00,VWS V14.01,2013-04-24 18:24:00,
2013-04-24 19:30:00,63.9,51.9,29.83,SSW,202,0.0,6.7,65,0.00,,,0.00,VWS V14.01,2013-04-24 18:30:00,
2013-04-24 19:35:00,63.3,51.3,29.83,South,180,0.0,2.9,65,0.00,,,0.00,VWS V14.01,2013-04-24 18:35:00,
2013-04-24 19:40:00,63.1,51.6,29.83,SW,225,0.0,0.0,66,0.00,,,0.00,VWS V14.01,2013-04-24 18:40:00,
2013-04-24 19:46:00,62.8,51.7,29.83,SSW,202,0.0,0.0,67,0.00,,,0.00,VWS V14.01,2013-04-24 18:46:00,
2013-04-24 19:52:00,62.4,51.3,29.83,SSW,202,0.0,0.0,67,0.00,,,0.00,VWS V14.01,2013-04-24 18:52:00,
2013-04-24 19:58:00,62.2,51.5,29.83,SW,225,0.0,0.0,68,0.00,,,0.00,VWS V14.01,2013-04-24 18:58:00,
2013-04-24 20:04:00,61.7,51.0,29.84,South,180,0.0,2.7,68,0.00,,,0.00,VWS V14.01,2013-04-24 19:04:00,
2013-04-24 20:09:00,61.5,51.2,29.84,SSE,157,0.0,0.0,69,0.00,,,0.00,VWS V14.01,2013-04-24 19:09:00,
2013-04-24 20:14:00,61.0,51.2,29.84,SW,225,0.0,0.0,70,0.00,,,0.00,VWS V14.01,2013-04-24 19:14:00,
2013-04-24 20:19:00,60.6,51.2,29.84,SW,225,0.0,0.0,71,0.00,,,0.00,VWS V14.01,2013-04-24 19:19:00,
2013-04-24 20:25:00,60.4,51.3,29.84,SSW,202,0.0,0.0,72,0.00,,,0.00,VWS V14.01,2013-04-24 19:25:00,
2013-04-24 20:30:00,60.1,51.4,29.84,SW,225,0.0,5.4,73,0.00,,,0.00,VWS V14.01,2013-04-24 19:30:00,
2013-04-24 20:36:00,59.5,50.8,29.85,SSW,202,6.3,6.3,73,0.00,,,0.00,VWS V14.01,2013-04-24 19:36:00,
2013-04-24 20:41:00,59.4,50.8,29.85,SSW,202,0.0,0.0,73,0.00,,,0.00,VWS V14.01,2013-04-24 19:41:00,
2013-04-24 20:47:00,59.0,50.7,29.85,SSW,202,0.0,0.0,74,0.00,,,0.00,VWS V14.01,2013-04-24 19:47:00,
2013-04-24 20:53:00,58.8,50.5,29.85,SSW,202,0.0,0.0,74,0.00,,,0.00,VWS V14.01,2013-04-24 19:53:00,
2013-04-24 20:58:00,58.8,50.9,29.85,SW,225,0.0,4.0,75,0.00,,,0.00,VWS V14.01,2013-04-24 19:58:00,
2013-04-24 21:03:00,58.8,50.9,29.85,SW,225,0.0,2.0,75,0.00,,,0.00,VWS V14.01,2013-04-24 20:03:00,
2013-04-24 21:09:00,58.8,50.9,29.85,SW,225,0.0,1.3,75,0.00,,,0.00,VWS V14.01,2013-04-24 20:09:00,
2013-04-24 21:14:00,58.6,50.7,29.86,SSW,202,0.0,5.8,75,0.00,,,0.00,VWS V14.01,2013-04-24 20:14:00,
2013-04-24 21:20:00,58.3,50.4,29.85,SW,225,0.0,0.0,75,0.00,,,0.00,VWS V14.01,2013-04-24 20:20:00,
2013-04-24 21:26:00,58.1,50.6,29.86,SSW,202,2.5,2.5,76,0.00,,,0.00,VWS V14.01,2013-04-24 20:26:00,
2013-04-24 21:32:00,57.9,50.7,29.86,North,0,0.0,4.9,77,0.00,,,0.00,VWS V14.01,2013-04-24 20:32:00,
2013-04-24 21:38:00,57.7,50.5,29.87,SW,225,0.0,0.0,77,0.00,,,0.00,VWS V14.01,2013-04-24 20:38:00,
2013-04-24 21:43:00,57.7,50.5,29.87,SSW,202,0.0,4.5,77,0.00,,,0.00,VWS V14.01,2013-04-24 20:43:00,
2013-04-24 21:48:00,57.6,50.5,29.86,SW,225,0.0,2.5,77,0.00,,,0.00,VWS V14.01,2013-04-24 20:48:00,
2013-04-24 21:54:00,57.4,50.6,29.87,SW,225,0.0,1.3,78,0.00,,,0.00,VWS V14.01,2013-04-24 20:54:00,
2013-04-24 22:00:00,56.8,50.4,29.86,SSW,202,0.0,1.6,79,0.00,,,0.00,VWS V14.01,2013-04-24 21:00:00,
2013-04-24 22:05:00,56.5,50.4,29.86,SSW,202,0.0,0.0,80,0.00,,,0.00,VWS V14.01,2013-04-24 21:05:00,
2013-04-24 22:10:00,56.3,50.2,29.86,SSW,202,0.0,0.0,80,0.00,,,0.00,VWS V14.01,2013-04-24 21:10:00,
2013-04-24 22:16:00,56.1,50.4,29.86,South,180,0.0,2.7,81,0.00,,,0.00,VWS V14.01,2013-04-24 21:16:00,
2013-04-24 22:22:00,55.9,50.2,29.86,SW,225,0.0,0.0,81,0.00,,,0.00,VWS V14.01,2013-04-24 21:22:00,
2013-04-24 22:28:00,55.9,50.5,29.85,SW,225,0.0,0.0,82,0.00,,,0.00,VWS V14.01,2013-04-24 21:28:00,
2013-04-24 22:34:00,55.8,50.7,29.86,SW,225,1.6,1.6,83,0.00,,,0.00,VWS V14.01,2013-04-24 21:34:00,
2013-04-24 22:40:00,55.6,50.5,29.86,SW,225,0.0,0.0,83,0.00,,,0.00,VWS V14.01,2013-04-24 21:40:00,
2013-04-24 22:46:00,55.4,50.7,29.86,SW,225,0.0,0.0,84,0.00,,,0.00,VWS V14.01,2013-04-24 21:46:00,
2013-04-24 22:52:00,55.2,50.5,29.87,SW,225,0.0,0.0,84,0.00,,,0.00,VWS V14.01,2013-04-24 21:52:00,
2013-04-24 22:58:00,55.0,50.6,29.85,SSW,202,0.0,0.0,85,0.00,,,0.00,VWS V14.01,2013-04-24 21:58:00,
2013-04-24 23:04:00,55.0,50.6,29.86,SW,225,0.0,0.0,85,0.00,,,0.00,VWS V14.01,2013-04-24 22:04:00,
2013-04-24 23:09:00,55.0,50.9,29.86,South,180,0.0,0.0,86,0.00,,,0.00,VWS V14.01,2013-04-24 22:09:00,
2013-04-24 23:14:00,55.0,50.9,29.85,SSE,157,0.0,0.0,86,0.00,,,0.00,VWS V14.01,2013-04-24 22:14:00,
2013-04-24 23:20:00,55.0,51.2,29.85,SSE,157,0.0,0.0,87,0.00,,,0.00,VWS V14.01,2013-04-24 22:20:00,
2013-04-24 23:25:00,55.0,51.2,29.85,SSE,157,0.0,0.0,87,0.00,,,0.00,VWS V14.01,2013-04-24 22:25:00,
2013-04-24 23:31:00,55.0,51.2,29.85,SSE,157,0.0,0.9,87,0.00,,,0.00,VWS V14.01,2013-04-24 22:31:00,
2013-04-24 23:36:00,54.9,51.1,29.85,SSE,157,0.0,0.0,87,0.00,,,0.00,VWS V14.01,2013-04-24 22:36:00,
2013-04-24 23:42:00,54.7,50.9,29.86,SSW,202,0.0,0.0,87,0.00,,,0.00,VWS V14.01,2013-04-24 22:42:00,
2013-04-24 23:47:00,54.7,51.2,29.85,South,180,0.0,3.4,88,0.00,,,0.00,VWS V14.01,2013-04-24 22:47:00,
2013-04-24 23:52:00,54.7,51.2,29.85,SSW,202,0.0,0.0,88,0.00,,,0.00,VWS V14.01,2013-04-24 22:52:00,
2013-04-24 23:57:00,54.7,51.2,29.85,South,180,0.0,0.0,88,0.00,,,0.00,VWS V14.01,2013-04-24 22:57:00,